Location: Waco, TX
(31.5480°N, 97.1670°W)
Time: 01:10:45
(UTC-06:00)

ISS - Pass Details

Date: 12 November 2017
Orbit: 402 x 407 km, 51.6° (Epoch: 23 November)

Event Time Altitude Azimuth Distance (km) Brightness Sun altitude
Rises 01:41:40 0° 271° (W) 2,310 - -65.6°
Reaches altitude 10° 01:44:57 10° 307° (NW) 1,452 - -65.0°
Maximum altitude 01:46:07 11° 328° (NNW) 1,368 - -64.8°
Drops below altitude 10° 01:47:17 10° 349° (N) 1,453 - -64.6°
Sets 01:50:34 0° 25° (NNE) 2,314 - -64.0°
